Time,TemperatureF,DewpointF,PressureIn,WindDirection,WindDirectionDegrees,WindSpeedMPH,WindSpeedGustMPH,Humidity,HourlyPrecipIn,Conditions,Clouds,dailyrainin,SoftwareType,DateUTC
2013-02-27 00:04:00,36.0,31.3,29.72,ENE,72,12.0,24.0,83,0.03,,,-99.99,Weather View 32 v70,2013-02-27 05:04:00,
2013-02-27 00:09:00,35.9,31.2,29.72,ENE,58,4.0,24.0,83,0.03,,,-99.99,Weather View 32 v70,2013-02-27 05:09:00,
2013-02-27 00:14:00,36.0,31.3,29.72,ENE,63,4.0,24.0,83,0.02,,,-99.99,Weather View 32 v70,2013-02-27 05:14:00,
2013-02-27 00:19:00,36.0,31.3,29.71,NE,55,6.0,24.0,83,0.02,,,-99.99,Weather View 32 v70,2013-02-27 05:19:00,
2013-02-27 00:24:00,36.1,31.4,29.71,East,88,3.0,24.0,83,0.03,,,-99.99,Weather View 32 v70,2013-02-27 05:24:00,
2013-02-27 00:29:00,36.1,31.1,29.71,East,85,4.0,24.0,82,0.02,,,-99.99,Weather View 32 v70,2013-02-27 05:29:00,
2013-02-27 00:34:00,36.2,31.5,29.71,East,84,4.0,15.0,83,0.02,,,-99.99,Weather View 32 v70,2013-02-27 05:34:00,
2013-02-27 00:44:00,36.2,31.2,29.71,NE,49,3.0,15.0,82,0.02,,,-99.99,Weather View 32 v70,2013-02-27 05:44:00,
2013-02-27 00:49:00,36.3,31.3,29.72,East,96,8.0,15.0,82,0.01,,,-99.99,Weather View 32 v70,2013-02-27 05:49:00,
2013-02-27 00:59:00,36.3,31.3,29.71,East,81,7.0,15.0,82,0.01,,,-99.99,Weather View 32 v70,2013-02-27 05:59:00,
2013-02-27 01:04:00,36.2,30.9,29.71,ENE,75,5.0,15.0,81,0.01,,,-99.99,Weather View 32 v70,2013-02-27 06:04:00,
2013-02-27 01:09:00,36.3,31.0,29.70,ENE,67,8.0,15.0,81,0.01,,,-99.99,Weather View 32 v70,2013-02-27 06:09:00,
2013-02-27 01:14:00,36.3,31.0,29.70,ESE,106,5.0,15.0,81,0.01,,,-99.99,Weather View 32 v70,2013-02-27 06:14:00,
2013-02-27 01:19:00,36.3,31.0,29.70,East,100,10.0,18.0,81,0.01,,,-99.99,Weather View 32 v70,2013-02-27 06:19:00,
2013-02-27 01:29:00,36.4,31.1,29.70,East,91,3.0,18.0,81,0.00,,,-99.99,Weather View 32 v70,2013-02-27 06:29:00,
2013-02-27 01:34:00,36.4,30.8,29.70,East,83,5.0,18.0,80,0.00,,,-99.99,Weather View 32 v70,2013-02-27 06:34:00,
2013-02-27 01:40:00,36.5,30.9,29.70,East,82,8.0,18.0,80,0.00,,,-99.99,Weather View 32 v70,2013-02-27 06:40:00,
2013-02-27 01:49:00,36.5,30.6,29.70,NNE,15,3.0,18.0,79,0.00,,,-99.99,Weather View 32 v70,2013-02-27 06:49:00,
2013-02-27 01:59:00,36.5,30.6,29.70,NE,49,5.0,18.0,79,0.00,,,-99.99,Weather View 32 v70,2013-02-27 06:59:00,
2013-02-27 02:04:00,36.5,30.6,29.69,ENE,78,2.0,18.0,79,0.00,,,-99.99,Weather View 32 v70,2013-02-27 07:04:00,
2013-02-27 02:09:00,36.5,30.3,29.69,ENE,68,7.0,18.0,78,0.00,,,-99.99,Weather View 32 v70,2013-02-27 07:09:00,
2013-02-27 02:14:00,36.5,30.3,29.68,ENE,71,6.0,18.0,78,0.00,,,-99.99,Weather View 32 v70,2013-02-27 07:14:00,
2013-02-27 02:24:00,36.6,30.4,29.68,ENE,78,7.0,15.0,78,0.00,,,-99.99,Weather View 32 v70,2013-02-27 07:24:00,
2013-02-27 02:29:00,36.6,30.4,29.67,East,85,3.0,15.0,78,0.00,,,-99.99,Weather View 32 v70,2013-02-27 07:29:00,
2013-02-27 02:34:00,36.7,30.5,29.67,East,79,1.0,12.0,78,0.00,,,-99.99,Weather View 32 v70,2013-02-27 07:34:00,
2013-02-27 02:39:00,36.6,30.4,29.67,ESE,119,2.0,11.0,78,0.00,,,-99.99,Weather View 32 v70,2013-02-27 07:39:00,
2013-02-27 02:44:00,36.6,30.4,29.68,NE,48,1.0,11.0,78,0.00,,,-99.99,Weather View 32 v70,2013-02-27 07:44:00,
2013-02-27 02:54:00,36.7,29.8,29.67,ENE,64,4.0,11.0,76,0.01,,,-99.99,Weather View 32 v70,2013-02-27 07:54:00,
2013-02-27 02:59:00,36.7,29.8,29.67,ENE,71,3.0,11.0,76,0.01,,,-99.99,Weather View 32 v70,2013-02-27 07:59:00,
2013-02-27 03:04:00,36.7,29.8,29.67,East,90,1.0,11.0,76,0.01,,,-99.99,Weather View 32 v70,2013-02-27 08:04:00,
2013-02-27 03:09:00,36.7,29.8,29.67,ENE,73,5.0,11.0,76,0.01,,,-99.99,Weather View 32 v70,2013-02-27 08:09:00,
2013-02-27 03:14:00,36.7,29.8,29.67,East,90,2.0,11.0,76,0.01,,,-99.99,Weather View 32 v70,2013-02-27 08:14:00,
2013-02-27 03:24:00,36.7,29.8,29.66,ENE,68,4.0,11.0,76,0.01,,,-99.99,Weather View 32 v70,2013-02-27 08:24:00,
2013-02-27 03:29:00,36.7,29.8,29.66,ENE,71,6.0,11.0,76,0.01,,,-99.99,Weather View 32 v70,2013-02-27 08:29:00,
2013-02-27 03:34:00,36.7,29.8,29.65,ENE,61,8.0,11.0,76,0.01,,,-99.99,Weather View 32 v70,2013-02-27 08:34:00,
2013-02-27 03:41:00,36.8,29.6,29.65,East,84,3.0,11.0,75,0.01,,,-99.99,Weather View 32 v70,2013-02-27 08:41:00,
2013-02-27 03:49:00,36.8,29.9,29.65,ENE,70,6.0,11.0,76,0.00,,,-99.99,Weather View 32 v70,2013-02-27 08:49:00,
2013-02-27 03:54:00,36.8,29.6,29.65,ENE,57,1.0,10.0,75,0.00,,,-99.99,Weather View 32 v70,2013-02-27 08:54:00,
2013-02-27 03:59:00,36.7,29.5,29.65,ENE,74,2.0,10.0,75,0.00,,,-99.99,Weather View 32 v70,2013-02-27 08:59:00,
2013-02-27 04:04:00,36.7,29.8,29.65,East,98,2.0,10.0,76,0.00,,,-99.99,Weather View 32 v70,2013-02-27 09:04:00,
2013-02-27 04:09:00,36.7,29.8,29.65,ENE,68,5.0,10.0,76,0.00,,,-99.99,Weather View 32 v70,2013-02-27 09:09:00,
2013-02-27 04:19:00,36.7,29.8,29.65,ENE,74,3.0,10.0,76,0.00,,,-99.99,Weather View 32 v70,2013-02-27 09:19:00,
2013-02-27 04:24:00,36.7,29.5,29.65,ENE,60,5.0,10.0,75,0.00,,,-99.99,Weather View 32 v70,2013-02-27 09:24:00,
2013-02-27 04:29:00,36.7,29.8,29.64,ENE,66,4.0,10.0,76,0.00,,,-99.99,Weather View 32 v70,2013-02-27 09:29:00,
2013-02-27 04:34:00,36.7,29.5,29.64,East,79,4.0,10.0,75,0.00,,,-99.99,Weather View 32 v70,2013-02-27 09:34:00,
2013-02-27 04:41:00,36.7,29.8,29.65,East,79,3.0,9.0,76,0.00,,,-99.99,Weather View 32 v70,2013-02-27 09:41:00,
2013-02-27 04:49:00,36.7,29.8,29.64,ENE,66,5.0,7.0,76,0.00,,,-99.99,Weather View 32 v70,2013-02-27 09:49:00,
2013-02-27 04:54:00,36.7,29.8,29.64,ENE,59,3.0,7.0,76,0.00,,,-99.99,Weather View 32 v70,2013-02-27 09:54:00,
2013-02-27 04:59:00,36.7,29.8,29.64,ENE,74,1.0,7.0,76,0.00,,,-99.99,Weather View 32 v70,2013-02-27 09:59:00,
2013-02-27 05:04:00,36.6,29.4,29.64,ENE,75,0.0,7.0,75,0.00,,,-99.99,Weather View 32 v70,2013-02-27 10:04:00,
2013-02-27 05:09:00,36.5,29.3,29.64,North,0,1.0,7.0,75,0.00,,,-99.99,Weather View 32 v70,2013-02-27 10:09:00,
2013-02-27 05:19:00,36.3,29.5,29.64,North,0,1.0,7.0,76,0.00,,,-99.99,Weather View 32 v70,2013-02-27 10:19:00,
2013-02-27 05:24:00,36.2,29.4,29.64,NE,56,1.0,7.0,76,0.00,,,-99.99,Weather View 32 v70,2013-02-27 10:24:00,
2013-02-27 05:29:00,36.2,29.7,29.64,ENE,59,1.0,7.0,77,0.00,,,-99.99,Weather View 32 v70,2013-02-27 10:29:00,
2013-02-27 05:39:00,36.0,29.8,29.63,ENE,63,2.0,6.0,78,0.00,,,-99.99,Weather View 32 v70,2013-02-27 10:39:00,
2013-02-27 05:44:00,35.9,29.7,29.62,NE,53,3.0,6.0,78,0.00,,,-99.99,Weather View 32 v70,2013-02-27 10:44:00,
2013-02-27 05:49:00,35.9,30.0,29.62,East,81,3.0,6.0,79,0.00,,,-99.99,Weather View 32 v70,2013-02-27 10:49:00,
2013-02-27 05:54:00,35.8,29.9,29.62,ENE,74,1.0,6.0,79,0.00,,,-99.99,Weather View 32 v70,2013-02-27 10:54:00,
2013-02-27 05:59:00,35.8,29.9,29.63,East,98,1.0,6.0,79,0.01,,,-99.99,Weather View 32 v70,2013-02-27 10:59:00,
2013-02-27 06:09:00,35.7,30.1,29.63,NE,53,0.0,6.0,80,0.01,,,-99.99,Weather View 32 v70,2013-02-27 11:09:00,
2013-02-27 06:14:00,35.7,30.1,29.63,ENE,58,1.0,6.0,80,0.01,,,-99.99,Weather View 32 v70,2013-02-27 11:14:00,
2013-02-27 06:19:00,35.7,30.1,29.63,ENE,58,2.0,6.0,80,0.01,,,-99.99,Weather View 32 v70,2013-02-27 11:19:00,
2013-02-27 06:24:00,35.6,30.0,29.63,ENE,58,2.0,6.0,80,0.01,,,-99.99,Weather View 32 v70,2013-02-27 11:24:00,
2013-02-27 06:29:00,35.6,30.3,29.63,ENE,58,3.0,6.0,81,0.01,,,-99.99,Weather View 32 v70,2013-02-27 11:29:00,
2013-02-27 06:39:00,35.5,30.2,29.62,ENE,73,1.0,6.0,81,0.01,,,-99.99,Weather View 32 v70,2013-02-27 11:39:00,
2013-02-27 06:44:00,35.5,30.2,29.62,ENE,75,0.0,6.0,81,0.01,,,-99.99,Weather View 32 v70,2013-02-27 11:44:00,
2013-02-27 06:49:00,35.5,30.5,29.62,ENE,75,2.0,6.0,82,0.01,,,-99.99,Weather View 32 v70,2013-02-27 11:49:00,
2013-02-27 06:54:00,35.4,30.5,29.62,ENE,71,1.0,6.0,82,0.01,,,-99.99,Weather View 32 v70,2013-02-27 11:54:00,
2013-02-27 07:04:00,35.3,30.7,29.62,ENE,71,1.0,5.0,83,0.01,,,-99.99,Weather View 32 v70,2013-02-27 12:04:00,
2013-02-27 07:09:00,35.3,30.4,29.62,ENE,72,1.0,5.0,82,0.01,,,-99.99,Weather View 32 v70,2013-02-27 12:09:00,
2013-02-27 07:14:00,35.3,30.4,29.62,ENE,60,0.0,5.0,82,0.01,,,-99.99,Weather View 32 v70,2013-02-27 12:14:00,
2013-02-27 07:19:00,35.3,30.7,29.62,ENE,60,2.0,5.0,83,0.01,,,-99.99,Weather View 32 v70,2013-02-27 12:19:00,
2013-02-27 07:29:00,35.4,30.7,29.62,ENE,63,2.0,5.0,83,0.01,,,-99.99,Weather View 32 v70,2013-02-27 12:29:00,
2013-02-27 07:34:00,35.3,30.7,29.62,ESE,103,2.0,5.0,83,0.01,,,-99.99,Weather View 32 v70,2013-02-27 12:34:00,
2013-02-27 07:39:00,35.3,30.7,29.62,ESE,102,0.0,5.0,83,0.01,,,-99.99,Weather View 32 v70,2013-02-27 12:39:00,
2013-02-27 07:44:00,35.3,30.7,29.62,NE,53,2.0,5.0,83,0.01,,,-99.99,Weather View 32 v70,2013-02-27 12:44:00,
2013-02-27 07:49:00,35.3,30.7,29.63,NNE,25,2.0,5.0,83,0.01,,,-99.99,Weather View 32 v70,2013-02-27 12:49:00,
2013-02-27 07:59:00,35.2,30.8,29.63,ENE,69,1.0,5.0,84,0.01,,,-99.99,Weather View 32 v70,2013-02-27 12:59:00,
2013-02-27 08:04:00,35.1,30.8,29.63,ENE,63,2.0,5.0,84,0.00,,,-99.99,Weather View 32 v70,2013-02-27 13:04:00,
2013-02-27 08:09:00,35.1,30.5,29.63,East,85,2.0,5.0,83,0.00,,,-99.99,Weather View 32 v70,2013-02-27 13:09:00,
2013-02-27 08:14:00,35.1,30.8,29.63,East,93,1.0,5.0,84,0.01,,,-99.99,Weather View 32 v70,2013-02-27 13:14:00,
2013-02-27 08:19:00,35.0,30.7,29.63,East,93,1.0,5.0,84,0.01,,,-99.99,Weather View 32 v70,2013-02-27 13:19:00,
2013-02-27 08:29:00,34.8,30.5,29.63,North,1,1.0,5.0,84,0.01,,,-99.99,Weather View 32 v70,2013-02-27 13:29:00,
2013-02-27 08:34:00,34.8,30.5,29.63,North,0,0.0,5.0,84,0.02,,,-99.99,Weather View 32 v70,2013-02-27 13:34:00,
2013-02-27 08:39:00,34.8,30.5,29.63,NE,45,1.0,5.0,84,0.02,,,-99.99,Weather View 32 v70,2013-02-27 13:39:00,
2013-02-27 08:44:00,34.8,30.5,29.63,NE,48,1.0,5.0,84,0.02,,,-99.99,Weather View 32 v70,2013-02-27 13:44:00,
2013-02-27 08:49:00,34.9,30.6,29.63,East,84,3.0,5.0,84,0.02,,,-99.99,Weather View 32 v70,2013-02-27 13:49:00,
2013-02-27 08:55:00,34.9,30.8,29.63,ENE,61,2.0,5.0,85,0.02,,,-99.99,Weather View 32 v70,2013-02-27 13:55:00,
2013-02-27 09:04:00,34.9,30.6,29.63,NNE,12,0.0,5.0,84,0.02,,,-99.99,Weather View 32 v70,2013-02-27 14:04:00,
2013-02-27 09:09:00,34.9,30.8,29.63,ENE,69,0.0,5.0,85,0.02,,,-99.99,Weather View 32 v70,2013-02-27 14:09:00,
2013-02-27 09:14:00,34.9,30.8,29.63,ENE,58,1.0,5.0,85,0.01,,,-99.99,Weather View 32 v70,2013-02-27 14:14:00,
2013-02-27 09:24:00,34.8,30.7,29.63,North,0,1.0,5.0,85,0.01,,,-99.99,Weather View 32 v70,2013-02-27 14:24:00,
2013-02-27 09:29:00,34.9,30.8,29.63,ENE,65,2.0,5.0,85,0.02,,,-99.99,Weather View 32 v70,2013-02-27 14:29:00,
2013-02-27 09:34:00,35.0,30.9,29.63,ENE,70,1.0,5.0,85,0.01,,,-99.99,Weather View 32 v70,2013-02-27 14:34:00,
2013-02-27 09:39:00,35.0,30.9,29.63,East,84,1.0,5.0,85,0.01,,,-99.99,Weather View 32 v70,2013-02-27 14:39:00,
2013-02-27 09:49:00,34.9,30.8,29.63,ENE,70,1.0,5.0,85,0.01,,,-99.99,Weather View 32 v70,2013-02-27 14:49:00,
2013-02-27 09:54:00,34.9,30.8,29.63,ENE,70,0.0,5.0,85,0.02,,,-99.99,Weather View 32 v70,2013-02-27 14:54:00,
2013-02-27 09:59:00,34.9,30.8,29.63,ENE,70,0.0,5.0,85,0.02,,,-99.99,Weather View 32 v70,2013-02-27 14:59:00,
2013-02-27 10:09:00,34.9,30.8,29.63,ENE,70,0.0,5.0,85,0.02,,,-99.99,Weather View 32 v70,2013-02-27 15:09:00,
2013-02-27 10:14:00,34.8,30.7,29.63,ENE,70,0.0,4.0,85,0.03,,,-99.99,Weather View 32 v70,2013-02-27 15:14:00,
2013-02-27 10:19:00,34.9,30.8,29.63,ENE,70,0.0,4.0,85,0.03,,,-99.99,Weather View 32 v70,2013-02-27 15:19:00,
2013-02-27 10:24:00,34.9,30.8,29.63,ENE,70,0.0,4.0,85,0.03,,,-99.99,Weather View 32 v70,2013-02-27 15:24:00,
2013-02-27 10:34:00,35.0,30.9,29.64,ENE,70,1.0,4.0,85,0.03,,,-99.99,Weather View 32 v70,2013-02-27 15:34:00,
2013-02-27 10:39:00,35.0,30.9,29.64,ENE,73,2.0,4.0,85,0.03,,,-99.99,Weather View 32 v70,2013-02-27 15:39:00,
2013-02-27 10:45:00,35.1,31.0,29.64,ENE,73,1.0,4.0,85,0.03,,,-99.99,Weather View 32 v70,2013-02-27 15:45:00,
2013-02-27 10:54:00,35.3,31.2,29.64,ENE,72,2.0,4.0,85,0.03,,,-99.99,Weather View 32 v70,2013-02-27 15:54:00,
2013-02-27 10:59:00,35.4,31.3,29.64,ENE,73,3.0,4.0,85,0.03,,,-99.99,Weather View 32 v70,2013-02-27 15:59:00,
2013-02-27 11:04:00,35.5,31.4,29.63,ENE,71,1.0,5.0,85,0.03,,,-99.99,Weather View 32 v70,2013-02-27 16:04:00,
2013-02-27 11:09:00,35.6,31.5,29.63,ENE,71,1.0,5.0,85,0.03,,,-99.99,Weather View 32 v70,2013-02-27 16:09:00,
2013-02-27 11:19:00,35.9,31.8,29.63,ENE,71,0.0,5.0,85,0.03,,,-99.99,Weather View 32 v70,2013-02-27 16:19:00,
2013-02-27 11:24:00,35.9,31.8,29.63,ENE,71,1.0,5.0,85,0.03,,,-99.99,Weather View 32 v70,2013-02-27 16:24:00,
2013-02-27 11:29:00,36.0,31.9,29.62,ENE,71,2.0,5.0,85,0.03,,,-99.99,Weather View 32 v70,2013-02-27 16:29:00,
2013-02-27 11:34:00,36.2,32.1,29.62,ENE,71,0.0,5.0,85,0.02,,,-99.99,Weather View 32 v70,2013-02-27 16:34:00,
2013-02-27 11:44:00,36.3,32.5,29.63,East,79,2.0,5.0,86,0.02,,,-99.99,Weather View 32 v70,2013-02-27 16:44:00,
2013-02-27 11:49:00,36.4,32.3,29.63,East,79,1.0,5.0,85,0.02,,,-99.99,Weather View 32 v70,2013-02-27 16:49:00,
2013-02-27 11:54:00,36.5,32.4,29.63,East,79,0.0,5.0,85,0.02,,,-99.99,Weather View 32 v70,2013-02-27 16:54:00,
2013-02-27 12:05:00,36.4,32.3,29.63,East,79,1.0,3.0,85,0.03,,,-99.99,Weather View 32 v70,2013-02-27 17:05:00,
2013-02-27 12:14:00,36.3,32.2,29.63,East,79,1.0,3.0,85,0.02,,,-99.99,Weather View 32 v70,2013-02-27 17:14:00,
2013-02-27 12:20:00,36.3,32.2,29.63,East,79,1.0,3.0,85,0.03,,,-99.99,Weather View 32 v70,2013-02-27 17:20:00,
2013-02-27 12:29:00,36.1,32.0,29.63,East,79,2.0,3.0,85,0.04,,,-99.99,Weather View 32 v70,2013-02-27 17:29:00,
2013-02-27 12:34:00,36.0,31.9,29.63,East,79,1.0,3.0,85,0.05,,,-99.99,Weather View 32 v70,2013-02-27 17:34:00,
2013-02-27 12:40:00,36.0,31.9,29.63,East,79,1.0,3.0,85,0.05,,,-99.99,Weather View 32 v70,2013-02-27 17:40:00,
2013-02-27 12:46:00,35.9,31.5,29.62,East,79,0.0,3.0,84,0.06,,,-99.99,Weather View 32 v70,2013-02-27 17:46:00,
2013-02-27 12:54:00,35.7,31.3,29.62,East,79,0.0,3.0,84,0.06,,,-99.99,Weather View 32 v70,2013-02-27 17:54:00,
2013-02-27 12:59:00,35.7,31.3,29.62,East,79,0.0,3.0,84,0.07,,,-99.99,Weather View 32 v70,2013-02-27 17:59:00,
2013-02-27 13:04:00,35.7,31.3,29.61,East,79,0.0,3.0,84,0.06,,,-99.99,Weather View 32 v70,2013-02-27 18:04:00,
2013-02-27 13:14:00,36.0,31.9,29.61,East,79,0.0,3.0,85,0.07,,,-99.99,Weather View 32 v70,2013-02-27 18:14:00,
2013-02-27 13:19:00,36.3,32.2,29.61,East,79,0.0,3.0,85,0.06,,,-99.99,Weather View 32 v70,2013-02-27 18:19:00,
2013-02-27 13:24:00,36.5,32.4,29.61,East,79,0.0,2.0,85,0.05,,,-99.99,Weather View 32 v70,2013-02-27 18:24:00,
2013-02-27 13:30:00,36.7,32.6,29.61,East,79,0.0,2.0,85,0.05,,,-99.99,Weather View 32 v70,2013-02-27 18:30:00,
2013-02-27 13:39:00,37.2,33.1,29.61,East,79,0.0,2.0,85,0.05,,,-99.99,Weather View 32 v70,2013-02-27 18:39:00,
2013-02-27 13:44:00,37.4,33.3,29.61,SSW,209,1.0,3.0,85,0.04,,,-99.99,Weather View 32 v70,2013-02-27 18:44:00,
2013-02-27 13:49:00,37.5,33.4,29.61,SW,220,2.0,3.0,85,0.04,,,-99.99,Weather View 32 v70,2013-02-27 18:49:00,
2013-02-27 13:59:00,37.3,33.2,29.61,SW,223,3.0,6.0,85,0.03,,,-99.99,Weather View 32 v70,2013-02-27 18:59:00,
2013-02-27 14:04:00,37.2,32.8,29.61,SW,223,2.0,6.0,84,0.03,,,-99.99,Weather View 32 v70,2013-02-27 19:04:00,
2013-02-27 14:09:00,37.1,32.7,29.61,SW,223,2.0,6.0,84,0.03,,,-99.99,Weather View 32 v70,2013-02-27 19:09:00,
2013-02-27 14:15:00,37.1,32.7,29.60,SW,223,2.0,6.0,84,0.02,,,-99.99,Weather View 32 v70,2013-02-27 19:15:00,
2013-02-27 14:24:00,37.1,32.7,29.61,SW,223,5.0,6.0,84,0.03,,,-99.99,Weather View 32 v70,2013-02-27 19:24:00,
2013-02-27 14:29:00,37.2,32.8,29.60,WSW,245,2.0,6.0,84,0.03,,,-99.99,Weather View 32 v70,2013-02-27 19:29:00,
2013-02-27 14:34:00,37.2,32.8,29.60,WSW,250,2.0,6.0,84,0.02,,,-99.99,Weather View 32 v70,2013-02-27 19:34:00,
2013-02-27 14:40:00,37.3,32.9,29.60,West,264,0.0,6.0,84,0.03,,,-99.99,Weather View 32 v70,2013-02-27 19:40:00,
2013-02-27 14:47:00,37.3,32.9,29.61,West,264,1.0,6.0,84,0.03,,,-99.99,Weather View 32 v70,2013-02-27 19:47:00,
2013-02-27 14:54:00,37.5,33.4,29.61,WSW,242,3.0,6.0,85,0.04,,,-99.99,Weather View 32 v70,2013-02-27 19:54:00,
2013-02-27 14:59:00,37.6,33.5,29.61,WSW,242,3.0,6.0,85,0.03,,,-99.99,Weather View 32 v70,2013-02-27 19:59:00,
2013-02-27 15:05:00,37.6,33.5,29.61,SW,230,2.0,5.0,85,0.03,,,-99.99,Weather View 32 v70,2013-02-27 20:05:00,
2013-02-27 15:14:00,37.7,33.6,29.61,SW,230,1.0,5.0,85,0.04,,,-99.99,Weather View 32 v70,2013-02-27 20:14:00,
2013-02-27 15:20:00,37.7,33.6,29.61,WSW,239,1.0,5.0,85,0.05,,,-99.99,Weather View 32 v70,2013-02-27 20:20:00,
2013-02-27 15:29:00,37.7,33.6,29.61,West,276,2.0,6.0,85,0.04,,,-99.99,Weather View 32 v70,2013-02-27 20:29:00,
2013-02-27 15:34:00,37.7,33.6,29.61,West,265,0.0,6.0,85,0.04,,,-99.99,Weather View 32 v70,2013-02-27 20:34:00,
2013-02-27 15:39:00,37.7,33.9,29.61,WSW,254,0.0,6.0,86,0.04,,,-99.99,Weather View 32 v70,2013-02-27 20:39:00,
2013-02-27 15:45:00,37.7,33.9,29.62,SSW,205,3.0,6.0,86,0.04,,,-99.99,Weather View 32 v70,2013-02-27 20:45:00,
2013-02-27 15:50:00,37.7,33.9,29.61,SW,218,3.0,7.0,86,0.04,,,-99.99,Weather View 32 v70,2013-02-27 20:50:00,
2013-02-27 15:59:00,37.6,33.8,29.61,WNW,287,4.0,7.0,86,0.04,,,-99.99,Weather View 32 v70,2013-02-27 20:59:00,
2013-02-27 16:04:00,37.5,33.7,29.61,West,265,2.0,10.0,86,0.05,,,-99.99,Weather View 32 v70,2013-02-27 21:04:00,
2013-02-27 16:10:00,37.5,33.7,29.61,SSW,213,3.0,10.0,86,0.04,,,-99.99,Weather View 32 v70,2013-02-27 21:10:00,
2013-02-27 16:19:00,37.5,33.7,29.61,WNW,286,4.0,10.0,86,0.04,,,-99.99,Weather View 32 v70,2013-02-27 21:19:00,
2013-02-27 16:24:00,37.4,33.6,29.61,WNW,300,1.0,10.0,86,0.04,,,-99.99,Weather View 32 v70,2013-02-27 21:24:00,
2013-02-27 16:30:00,37.4,33.6,29.61,West,260,2.0,10.0,86,0.04,,,-99.99,Weather View 32 v70,2013-02-27 21:30:00,
2013-02-27 16:35:00,37.3,33.5,29.61,WNW,296,2.0,10.0,86,0.04,,,-99.99,Weather View 32 v70,2013-02-27 21:35:00,
2013-02-27 16:44:00,37.2,33.7,29.61,WNW,298,1.0,10.0,87,0.04,,,-99.99,Weather View 32 v70,2013-02-27 21:44:00,
2013-02-27 16:49:00,37.1,33.3,29.61,WSW,249,1.0,10.0,86,0.04,,,-99.99,Weather View 32 v70,2013-02-27 21:49:00,
2013-02-27 16:55:00,37.0,33.2,29.61,West,264,0.0,10.0,86,0.03,,,-99.99,Weather View 32 v70,2013-02-27 21:55:00,
2013-02-27 17:05:00,36.9,33.4,29.62,West,261,5.0,8.0,87,0.03,,,-99.99,Weather View 32 v70,2013-02-27 22:05:00,
2013-02-27 17:14:00,36.8,33.3,29.62,West,268,6.0,8.0,87,0.03,,,-99.99,Weather View 32 v70,2013-02-27 22:14:00,
2013-02-27 17:20:00,36.7,32.9,29.62,West,267,1.0,8.0,86,0.02,,,-99.99,Weather View 32 v70,2013-02-27 22:20:00,
2013-02-27 17:29:00,36.6,32.8,29.62,West,263,2.0,8.0,86,0.02,,,-99.99,Weather View 32 v70,2013-02-27 22:29:00,
2013-02-27 17:34:00,36.6,33.1,29.63,West,259,3.0,8.0,87,0.03,,,-99.99,Weather View 32 v70,2013-02-27 22:34:00,
2013-02-27 17:40:00,36.5,32.7,29.63,WNW,283,1.0,8.0,86,0.02,,,-99.99,Weather View 32 v70,2013-02-27 22:40:00,
2013-02-27 17:45:00,36.5,33.0,29.63,West,274,0.0,8.0,87,0.02,,,-99.99,Weather View 32 v70,2013-02-27 22:45:00,
2013-02-27 17:50:00,36.4,32.9,29.63,West,274,3.0,7.0,87,0.02,,,-99.99,Weather View 32 v70,2013-02-27 22:50:00,
2013-02-27 17:59:00,36.4,32.9,29.63,West,270,4.0,7.0,87,0.03,,,-99.99,Weather View 32 v70,2013-02-27 22:59:00,
2013-02-27 18:05:00,36.3,32.8,29.63,WSW,253,1.0,7.0,87,0.02,,,-99.99,Weather View 32 v70,2013-02-27 23:05:00,
2013-02-27 18:10:00,36.2,32.7,29.63,West,273,2.0,7.0,87,0.03,,,-99.99,Weather View 32 v70,2013-02-27 23:10:00,
2013-02-27 18:19:00,36.2,32.7,29.63,West,260,0.0,7.0,87,0.03,,,-99.99,Weather View 32 v70,2013-02-27 23:19:00,
2013-02-27 18:24:00,36.2,32.7,29.63,West,260,2.0,7.0,87,0.04,,,-99.99,Weather View 32 v70,2013-02-27 23:24:00,
2013-02-27 18:30:00,36.2,32.7,29.63,West,260,2.0,7.0,87,0.04,,,-99.99,Weather View 32 v70,2013-02-27 23:30:00,
2013-02-27 18:35:00,36.1,32.6,29.63,West,273,2.0,7.0,87,0.03,,,-99.99,Weather View 32 v70,2013-02-27 23:35:00,
2013-02-27 18:45:00,36.0,32.5,29.64,West,260,3.0,6.0,87,0.04,,,-99.99,Weather View 32 v70,2013-02-27 23:45:00,
2013-02-27 18:55:00,35.9,32.4,29.64,WSW,245,4.0,6.0,87,0.04,,,-99.99,Weather View 32 v70,2013-02-27 23:55:00,
2013-02-27 19:00:00,35.8,32.3,29.64,West,264,1.0,6.0,87,0.04,,,-99.99,Weather View 32 v70,2013-02-28 00:00:00,
2013-02-27 19:09:00,35.7,32.2,29.64,West,268,4.0,8.0,87,0.04,,,-99.99,Weather View 32 v70,2013-02-28 00:09:00,
2013-02-27 19:14:00,35.6,32.1,29.64,West,260,2.0,8.0,87,0.04,,,-99.99,Weather View 32 v70,2013-02-28 00:14:00,
2013-02-27 19:20:00,35.6,32.1,29.64,SSW,203,2.0,8.0,87,0.04,,,-99.99,Weather View 32 v70,2013-02-28 00:20:00,
2013-02-27 19:25:00,35.5,32.0,29.64,WSW,256,2.0,9.0,87,0.04,,,-99.99,Weather View 32 v70,2013-02-28 00:25:00,
2013-02-27 19:34:00,35.3,31.8,29.64,WSW,257,3.0,9.0,87,0.05,,,-99.99,Weather View 32 v70,2013-02-28 00:34:00,
2013-02-27 19:40:00,35.2,31.4,29.64,WSW,255,5.0,9.0,86,0.04,,,-99.99,Weather View 32 v70,2013-02-28 00:40:00,
2013-02-27 19:45:00,35.2,31.4,29.64,NW,304,2.0,9.0,86,0.04,,,-99.99,Weather View 32 v70,2013-02-28 00:45:00,
2013-02-27 19:50:00,35.2,31.4,29.64,WSW,238,2.0,9.0,86,0.05,,,-99.99,Weather View 32 v70,2013-02-28 00:50:00,
2013-02-27 19:59:00,35.1,31.6,29.64,WSW,256,2.0,9.0,87,0.04,,,-99.99,Weather View 32 v70,2013-02-28 00:59:00,
2013-02-27 20:04:00,35.0,31.2,29.64,SW,229,3.0,9.0,86,0.05,,,-99.99,Weather View 32 v70,2013-02-28 01:04:00,
2013-02-27 20:10:00,35.0,31.2,29.64,SW,233,4.0,9.0,86,0.04,,,-99.99,Weather View 32 v70,2013-02-28 01:10:00,
2013-02-27 20:15:00,35.0,31.2,29.64,SW,223,3.0,9.0,86,0.04,,,-99.99,Weather View 32 v70,2013-02-28 01:15:00,
2013-02-27 20:20:00,34.9,31.1,29.64,SW,231,2.0,9.0,86,0.04,,,-99.99,Weather View 32 v70,2013-02-28 01:20:00,
2013-02-27 20:30:00,34.8,31.0,29.63,WSW,248,2.0,8.0,86,0.04,,,-99.99,Weather View 32 v70,2013-02-28 01:30:00,
2013-02-27 20:35:00,34.8,31.0,29.63,West,263,2.0,8.0,86,0.03,,,-99.99,Weather View 32 v70,2013-02-28 01:35:00,
2013-02-27 20:40:00,34.8,31.0,29.63,West,263,2.0,8.0,86,0.03,,,-99.99,Weather View 32 v70,2013-02-28 01:40:00,
2013-02-27 20:50:00,34.8,31.0,29.63,West,259,2.0,7.0,86,0.03,,,-99.99,Weather View 32 v70,2013-02-28 01:50:00,
2013-02-27 20:55:00,34.8,31.3,29.63,West,263,3.0,7.0,87,0.04,,,-99.99,Weather View 32 v70,2013-02-28 01:55:00,
2013-02-27 21:00:00,34.7,30.9,29.63,West,263,3.0,7.0,86,0.04,,,-99.99,Weather View 32 v70,2013-02-28 02:00:00,
2013-02-27 21:09:00,34.7,31.2,29.63,SW,224,8.0,11.0,87,0.04,,,-99.99,Weather View 32 v70,2013-02-28 02:09:00,
2013-02-27 21:14:00,34.7,31.2,29.63,SW,221,4.0,11.0,87,0.04,,,-99.99,Weather View 32 v70,2013-02-28 02:14:00,
2013-02-27 21:20:00,34.6,31.1,29.63,SSW,213,2.0,11.0,87,0.04,,,-99.99,Weather View 32 v70,2013-02-28 02:20:00,
2013-02-27 21:25:00,34.6,30.8,29.63,SW,226,2.0,11.0,86,0.04,,,-99.99,Weather View 32 v70,2013-02-28 02:25:00,
2013-02-27 21:34:00,34.6,31.1,29.63,SW,223,6.0,11.0,87,0.03,,,-99.99,Weather View 32 v70,2013-02-28 02:34:00,
2013-02-27 21:40:00,34.6,30.8,29.63,SW,224,4.0,11.0,86,0.04,,,-99.99,Weather View 32 v70,2013-02-28 02:40:00,
2013-02-27 21:45:00,34.6,31.1,29.63,SW,216,8.0,14.0,87,0.03,,,-99.99,Weather View 32 v70,2013-02-28 02:45:00,
2013-02-27 21:50:00,34.7,31.2,29.63,SW,226,7.0,14.0,87,0.03,,,-99.99,Weather View 32 v70,2013-02-28 02:50:00,
2013-02-27 21:55:00,34.6,30.8,29.63,WSW,251,5.0,15.0,86,0.02,,,-99.99,Weather View 32 v70,2013-02-28 02:55:00,
2013-02-27 22:04:00,34.5,30.7,29.63,WSW,247,2.0,15.0,86,0.02,,,-99.99,Weather View 32 v70,2013-02-28 03:04:00,
2013-02-27 22:10:00,34.5,30.7,29.63,SW,214,1.0,15.0,86,0.01,,,-99.99,Weather View 32 v70,2013-02-28 03:10:00,
2013-02-27 22:15:00,34.4,30.6,29.63,WSW,258,5.0,15.0,86,0.01,,,-99.99,Weather View 32 v70,2013-02-28 03:15:00,
2013-02-27 22:20:00,34.4,30.6,29.63,SW,230,5.0,15.0,86,0.01,,,-99.99,Weather View 32 v70,2013-02-28 03:20:00,
2013-02-27 22:25:00,34.5,31.0,29.63,SW,230,8.0,15.0,87,0.01,,,-99.99,Weather View 32 v70,2013-02-28 03:25:00,
2013-02-27 22:35:00,34.5,30.7,29.63,SSW,213,6.0,15.0,86,0.01,,,-99.99,Weather View 32 v70,2013-02-28 03:35:00,
2013-02-27 22:40:00,34.5,30.7,29.63,SW,220,7.0,15.0,86,0.01,,,-99.99,Weather View 32 v70,2013-02-28 03:40:00,
2013-02-27 22:50:00,34.4,30.9,29.62,SW,229,2.0,15.0,87,0.01,,,-99.99,Weather View 32 v70,2013-02-28 03:50:00,
2013-02-27 23:00:00,34.4,30.6,29.63,SW,214,9.0,13.0,86,0.01,,,-99.99,Weather View 32 v70,2013-02-28 04:00:00,
2013-02-27 23:10:00,34.3,30.5,29.62,SW,234,3.0,13.0,86,0.01,,,-99.99,Weather View 32 v70,2013-02-28 04:10:00,
2013-02-27 23:20:00,34.3,30.5,29.62,SW,223,4.0,13.0,86,0.01,,,-99.99,Weather View 32 v70,2013-02-28 04:20:00,
2013-02-27 23:30:00,34.3,30.8,29.62,WNW,290,2.0,13.0,87,0.01,,,-99.99,Weather View 32 v70,2013-02-28 04:30:00,
2013-02-27 23:39:00,34.3,30.8,29.62,SW,231,7.0,13.0,87,0.00,,,-99.99,Weather View 32 v70,2013-02-28 04:39:00,
2013-02-27 23:45:00,34.3,30.5,29.62,SW,224,6.0,12.0,86,0.00,,,-99.99,Weather View 32 v70,2013-02-28 04:45:00,
2013-02-27 23:50:00,34.3,30.8,29.62,WSW,246,2.0,12.0,87,0.00,,,-99.99,Weather View 32 v70,2013-02-28 04:50:00,
2013-02-27 23:55:00,34.3,30.8,29.62,SW,231,5.0,12.0,87,0.00,,,-99.99,Weather View 32 v70,2013-02-28 04:55:00,